Regional Weather Roundup
Issued by NWS Upton, NY

Current Version | Previous Version | Graphics & Text | Print | Product List | Glossary Off
Versions: 1 2 3 4 5 6 7 8 9 10 11 12 13 14 15 16 17 18 19 20 21 22 23 24 25 26 27 28 29 30 31 32 33 34 35 36 37 38 39 40 41 42 43 44 45 46 47 48 49

000
ASUS41 KOKX 311205
RWROKX

REGIONAL WEATHER ROUNDUP
NATIONAL WEATHER SERVICE NEW YORK NY
700 AM EST SAT JAN 31 2015

NOTE: "FAIR" INDICATES FEW OR NO CLOUDS BELOW 12,000 FEET WITH NO
SIGNIFICANT WEATHER AND/OR OBSTRUCTIONS TO VISIBILITY.

NYZ071-072-176-178-NJZ106-104-311300-
NEW YORK CITY METRO AREA


CITY           SKY/WX    TMP DP  RH WIND       PRES   REMARKS
CENTRAL PARK   CLEAR     13  -4  46 NW10G24   30.12S WCI   0
LAGUARDIA APRT PTCLDY    14   0  53 NW33G45   30.10R WCI  -8
KENNEDY INTL   PTCLDY    14  -5  42 NW32G44   30.10R WCI  -7
NEWARK/LIBERTY PTCLDY    13  -2  51 NW16      30.13R WCI  -3
BRNX BOT. GARD   N/A    N/A N/A N/A NW13      30.09F
TETERBORO      CLEAR     12  -5  46 NW14G32   30.12R WCI  -3
$$

NYZ177-179-078>081-311300-
LONG ISLAND NEW YORK

CITY           SKY/WX    TMP DP  RH WIND       PRES   REMARKS
FARMINGDALE    CLEAR     13  -6  42 NW18G31   30.04R WCI  -4
ISLIP          PTCLDY    13  -5  44 NW32G48   29.99R WCI  -9
SHIRLEY        CLEAR     13  -6  42 NW18G33   29.99S WCI  -4
WESTHAMPTON    CLEAR     13  -4  46 NW24G38   29.97S WCI  -7
MONTAUK POINT    N/A     14   3  61 NW23G37   29.91S WCI  -5
$$

NYZ052-065-067-311300-
HUDSON VALLEY

CITY           SKY/WX    TMP DP  RH WIND       PRES   REMARKS
WHITE PLAINS   CLEAR      9  -7  48 NW23G29   30.02R WCI -11
NEWBURGH       CLEAR      7  -8  51 NW8       30.10R WCI  -6
MONTGOMERY     CLEAR      9 -10  42 NW16G24   30.10S WCI  -8
POUGHKEEPSIE   CLEAR     10 -10  40 NW10      30.12R WCI  -4
ALBANY         PTCLDY     0 -13  54 NW8       30.17R WCI -14
$$

NJZ001-105-106-008-010-013-015-019>022-104-311300-
NEW JERSEY

CITY           SKY/WX    TMP DP  RH WIND       PRES   REMARKS
NEWARK/LIBERTY PTCLDY    13  -2  51 NW16      30.13R WCI  -3
TETERBORO      CLEAR     12  -5  46 NW14G32   30.12R WCI  -3
CALDWELL       CLEAR     11  -5  48 VRB7G17   30.13R WCI   0
MORRISTOWN     CLEAR     12   0  57 N14G24    30.13R WCI  -3
SOMERVILLE     CLEAR     13  -3  49 NW9       30.13R WCI   1
SUSSEX         CLEAR      9  -5  53 NW10G22   30.10S WCI  -5
ANDOVER          N/A      9  -3  58 VRB7G20   30.11R WCI  -2
TRENTON        CLEAR     12  -4  48 NW12      30.14S WCI  -2
MILLVILLE      CLEAR     15  -2  46 NW14G30   30.19S WCI   0
ATLANTIC CITY  CLEAR     14  -1  51 NW20G31   30.15S WCI  -3
WRIGHTSTOWN    CLEAR     13  -3  50 NW14G23   30.13R WCI  -2
TOMS RIVER     CLEAR     12   0  57 NW15G23   30.14R WCI  -4
BELMAR         CLEAR     12  -4  48 NW14G23   30.11R WCI  -3
$$

PAZ047>061-062-071-311300-
EASTERN PENNSYLVANIA

CITY           SKY/WX    TMP DP  RH WIND       PRES   REMARKS
PHILADELPHIA   CLEAR     15  -3  44 NW15      30.22R WCI   0
ALLENTOWN      CLEAR     11  -5  48 NW10G20   30.18R WCI  -3
SCRANTON       CLOUDY     7  -3  64 N8        30.19R WCI  -6
$$

CTZ002-004>006-009-010-012-RIZ004-006-007-MAZ004-011-015-311300-
SOUTHERN NEW ENGLAND
 IN CT

CITY           SKY/WX    TMP DP  RH WIND       PRES   REMARKS
BRADLEY INTL   PTCLDY     5  -9  52 N8        30.00R WCI  -8
HARTFORD       CLEAR      6  -8  52 N18G28    30.03R WCI -13
DANBURY        CLEAR      7 -13  39 NW16G24   30.03R WCI -11
WTRBRY/OXFORD  CLEAR      5 -15  39 N10G29    29.95R WCI -10
BRIDGEPORT     CLEAR     10 -10  40 NW18G32   30.01R WCI  -8
MERIDEN        CLEAR      7  -9  48 N12G29    30.01R WCI  -8
NEW HAVEN      CLEAR      9  -9  44 N16G23    29.99R WCI  -8
CHESTER        FAIR       7  -6  56 NW20G36   29.92R WCI -13
GROTON         CLOUDY     9  -4  55 NW29G40   29.88R WCI -13
WILLIMANTIC    MOCLDY     7  -6  55 NW16G26   29.94R WCI -11

 IN RI

CITY           SKY/WX    TMP DP  RH WIND       PRES   REMARKS
PROVIDENCE     CLOUDY    13  -1  54 NW23G36   29.83R WCI  -6
BLOCK ISLAND   CLOUDY    14   0  52 NW20G32   29.83R WCI  -3
WESTERLY       CLOUDY    10  -4  53 NW25G37   29.85R WCI -11

 IN MA

CITY           SKY/WX    TMP DP  RH WIND       PRES   REMARKS
BOSTON         SNOW      11   6  81 NW25G32   29.80R VSB 1/2 WCI -10
WORCESTER      MIX PCPN N/A N/A N/A NW33G48   29.77R
WESTFIELD      CLEAR      5  -9  52 NW15G24   29.99R WCI -13
PROVINCETOWN   CLOUDY    19  14  79 NW32G45   29.70R VSB 3/4 WCI   0
NANTUCKET      LGT SNOW  18  12  77 NW20G31   29.70R WCI   2
$$

ANZ330-335-338-340-345-350-353-355-311300-
COASTAL MARINE OBSERVATIONS


STATION/POSITION TIME  SKY/WX   TEMP    WIND        PRES    VSBY  WAVE
                                AIR SEA DIR/SP/G                  HT/PER
                 (UTC)          (F)     (DEG/KT/KT) (MB)    (MI)  (FT/S)
NY HARB ENTRANCE 1200            19 40  310/ 33/ 39 1017.5          7/ 6
4S FIRE IS       1200               38                N/A           6/ 5
20S FIRE ISLAND  1100               41              1015.7         10/ 7
23SW MTP         1200                                 N/A           9/ 6
HUDSON CANYON    NOT AVBL
EXECUTION ROCKS  1200            16 33  290/ 19/ 27   N/A
WESTERN LI SOUND 1200            15     300/ 19/ 25   N/A           2/ 3
CENTRAL LI SOUND 1100            13 34  320/ 25/ 35   N/A           5/ 6
EASTERN LI SOUND NOT AVBL
ROBBINS REEF     1100            14     330/ 21/ 31 1018.5
$$


>>>>>>>>>>>>>>>>>>>>>>>>>>>> KEY <<<<<<<<<<<<<<<<<<<<<<<<<<<
>                                                          <
>     SKY/WX - SKY CONDITION/PRESENT WEATHER               <
>     TMP    - TEMPERATURE IN FAHRENHEIT                   <
>     DP     - DEWPOINT IN FAHRENHEIT                      <
>     RH     - RELATIVE HUMIDITY IN PERCENT                <
>     WIND   - DIRECTION AND SPEED IN MPH                  <
>     PRES   - MEAN SEA LEVEL PRESSURE IN INCHES OF HG     <
>     WCI    - WIND CHILL INDEX                            <
>     VSB    - VISIBILITY IN MILES                         <
>     HX     - HEAT INDEX                                  <
>     TC     - TEMPERATURE IN CELSIUS                      <
>     VRB    - VARIABLE WIND DIRECTION                     <
>                                                          <
>>>>>>>>>>>>>>>>>>>>>>>>>>>> KEY <<<<<<<<<<<<<<<<<<<<<<<<<<<





USA.gov is the U.S. government's official web portal to all federal, state and local government web resources and services.